Year,Month,Day,Hour,Minute,Value (Times are PST for temperature in C)
2015,07,18,00,00,14.30
2015,07,18,00,01,14.30
2015,07,18,00,02,14.30
2015,07,18,00,03,14.30
2015,07,18,00,04,14.30
2015,07,18,00,05,14.30
2015,07,18,00,06,14.30
2015,07,18,00,07,14.30
2015,07,18,00,08,14.30
2015,07,18,00,09,14.30
2015,07,18,00,10,14.40
2015,07,18,00,11,14.40
2015,07,18,00,12,14.40
2015,07,18,00,13,14.40
2015,07,18,00,14,14.50
2015,07,18,00,15,14.50
2015,07,18,00,16,14.50
2015,07,18,00,17,14.50
2015,07,18,00,18,14.50
2015,07,18,00,19,14.50
2015,07,18,00,20,14.50
2015,07,18,00,21,14.50
2015,07,18,00,22,14.50
2015,07,18,00,23,14.50
2015,07,18,00,24,14.50
2015,07,18,00,25,14.50
2015,07,18,00,26,14.50
2015,07,18,00,27,14.50
2015,07,18,00,28,14.50
2015,07,18,00,29,14.50
2015,07,18,00,30,14.50
2015,07,18,00,31,14.50
2015,07,18,00,32,14.50
2015,07,18,00,33,14.50
2015,07,18,00,34,14.50
2015,07,18,00,35,14.50
2015,07,18,00,36,14.50
2015,07,18,00,37,14.50
2015,07,18,00,38,14.50
2015,07,18,00,39,14.50
2015,07,18,00,40,14.50
2015,07,18,00,41,14.50
2015,07,18,00,42,14.50
2015,07,18,00,43,14.50
2015,07,18,00,44,14.50
2015,07,18,00,45,14.50
2015,07,18,00,46,14.60
2015,07,18,00,47,14.50
2015,07,18,00,48,14.50
2015,07,18,00,49,14.50
2015,07,18,00,50,14.60
2015,07,18,00,51,14.60
2015,07,18,00,52,14.60
2015,07,18,00,53,14.60
2015,07,18,00,54,14.60
2015,07,18,00,55,14.60
2015,07,18,00,56,14.60
2015,07,18,00,57,14.60
2015,07,18,00,58,14.60
2015,07,18,00,59,14.60
2015,07,18,01,00,14.60
2015,07,18,01,01,14.60
2015,07,18,01,02,14.60
2015,07,18,01,03,14.60
2015,07,18,01,04,14.60
2015,07,18,01,05,14.60
2015,07,18,01,06,14.60
2015,07,18,01,07,14.60
2015,07,18,01,08,14.60
2015,07,18,01,09,14.60
2015,07,18,01,10,14.60
2015,07,18,01,11,14.60
2015,07,18,01,12,14.60
2015,07,18,01,13,14.60
2015,07,18,01,14,14.60
2015,07,18,01,15,14.60
2015,07,18,01,16,14.60
2015,07,18,01,17,14.60
2015,07,18,01,18,14.60
2015,07,18,01,19,14.60
2015,07,18,01,20,14.60
2015,07,18,01,21,14.60
2015,07,18,01,22,14.60
2015,07,18,01,23,14.60
2015,07,18,01,24,14.60
2015,07,18,01,25,14.60
2015,07,18,01,26,14.60
2015,07,18,01,27,14.60
2015,07,18,01,28,14.60
2015,07,18,01,29,14.50
2015,07,18,01,30,14.50
2015,07,18,01,31,14.50
2015,07,18,01,32,14.40
2015,07,18,01,33,14.40
2015,07,18,01,34,14.30
2015,07,18,01,35,14.30
2015,07,18,01,36,14.30
2015,07,18,01,37,14.30
2015,07,18,01,38,14.30
2015,07,18,01,39,14.20
2015,07,18,01,40,14.20
2015,07,18,01,41,14.20
2015,07,18,01,42,14.20
2015,07,18,01,43,14.20
2015,07,18,01,44,14.20
2015,07,18,01,45,14.10
2015,07,18,01,46,14.10
2015,07,18,01,47,14.10
2015,07,18,01,48,14.00
2015,07,18,01,49,14.00
2015,07,18,01,50,14.00
2015,07,18,01,51,13.90
2015,07,18,01,52,13.90
2015,07,18,01,53,13.90
2015,07,18,01,54,13.90
2015,07,18,01,55,13.90
2015,07,18,01,56,13.80
2015,07,18,01,57,13.80
2015,07,18,01,58,13.80
2015,07,18,01,59,13.80
2015,07,18,02,00,13.80
2015,07,18,02,01,13.80
2015,07,18,02,02,13.80
2015,07,18,02,03,13.80
2015,07,18,02,04,13.80
2015,07,18,02,05,13.80
2015,07,18,02,06,13.80
2015,07,18,02,07,13.80
2015,07,18,02,08,13.70
2015,07,18,02,09,13.70
2015,07,18,02,10,13.80
2015,07,18,02,11,13.80
2015,07,18,02,12,13.70
2015,07,18,02,13,13.70
2015,07,18,02,14,13.70
2015,07,18,02,15,13.70
2015,07,18,02,16,13.70
2015,07,18,02,17,13.70
2015,07,18,02,18,13.70
2015,07,18,02,19,13.70
2015,07,18,02,20,13.70
2015,07,18,02,21,13.80
2015,07,18,02,22,13.80
2015,07,18,02,23,13.80
2015,07,18,02,24,13.80
2015,07,18,02,25,13.80
2015,07,18,02,26,13.80
2015,07,18,02,27,13.80
2015,07,18,02,28,13.80
2015,07,18,02,29,13.80
2015,07,18,02,30,13.80
2015,07,18,02,31,13.80
2015,07,18,02,32,13.80
2015,07,18,02,33,13.80
2015,07,18,02,34,13.80
2015,07,18,02,35,13.80
2015,07,18,02,36,13.80
2015,07,18,02,37,13.80
2015,07,18,02,38,13.80
2015,07,18,02,39,13.90
2015,07,18,02,40,13.90
2015,07,18,02,41,13.90
2015,07,18,02,42,13.90
2015,07,18,02,43,13.90
2015,07,18,02,44,13.90
2015,07,18,02,45,13.80
2015,07,18,02,46,13.80
2015,07,18,02,47,13.80
2015,07,18,02,48,13.80
2015,07,18,02,49,13.80
2015,07,18,02,50,13.80
2015,07,18,02,51,13.80
2015,07,18,02,52,13.80
2015,07,18,02,53,13.80
2015,07,18,02,54,13.80
2015,07,18,02,55,13.80
2015,07,18,02,56,13.80
2015,07,18,02,57,13.80
2015,07,18,02,58,13.80
2015,07,18,02,59,13.80
2015,07,18,03,00,13.80
2015,07,18,03,01,13.80
2015,07,18,03,02,13.70
2015,07,18,03,03,13.70
2015,07,18,03,04,13.70
2015,07,18,03,05,13.70
2015,07,18,03,06,13.70
2015,07,18,03,07,13.70
2015,07,18,03,08,13.70
2015,07,18,03,09,13.70
2015,07,18,03,10,13.70
2015,07,18,03,11,13.70
2015,07,18,03,12,13.70
2015,07,18,03,13,13.70
2015,07,18,03,14,13.70
2015,07,18,03,15,13.70
2015,07,18,03,16,13.80
2015,07,18,03,17,13.80
2015,07,18,03,18,13.80
2015,07,18,03,19,13.90
2015,07,18,03,20,13.90
2015,07,18,03,21,13.90
2015,07,18,03,22,13.90
2015,07,18,03,23,13.90
2015,07,18,03,24,13.90
2015,07,18,03,25,13.90
2015,07,18,03,26,13.90
2015,07,18,03,27,13.90
2015,07,18,03,28,13.90
2015,07,18,03,29,13.90
2015,07,18,03,30,13.90
2015,07,18,03,31,14.00
2015,07,18,03,32,14.00
2015,07,18,03,33,14.00
2015,07,18,03,34,14.00
2015,07,18,03,35,14.00
2015,07,18,03,36,14.10
2015,07,18,03,37,14.10
2015,07,18,03,38,14.20
2015,07,18,03,39,14.20
2015,07,18,03,40,14.30
2015,07,18,03,41,14.40
2015,07,18,03,42,14.40
2015,07,18,03,43,14.50
2015,07,18,03,44,14.50
2015,07,18,03,45,14.60
2015,07,18,03,46,14.80
2015,07,18,03,47,14.90
2015,07,18,03,48,15.00
2015,07,18,03,49,15.10
2015,07,18,03,50,15.20
2015,07,18,03,51,15.20
2015,07,18,03,52,15.30
2015,07,18,03,53,15.30
2015,07,18,03,54,15.30
2015,07,18,03,55,15.30
2015,07,18,03,56,15.30
2015,07,18,03,57,15.30
2015,07,18,03,58,15.30
2015,07,18,03,59,15.30
2015,07,18,04,00,15.20
2015,07,18,04,01,15.10
2015,07,18,04,02,15.10
2015,07,18,04,03,15.00
2015,07,18,04,04,15.00
2015,07,18,04,05,15.00
2015,07,18,04,06,14.90
2015,07,18,04,07,14.90
2015,07,18,04,08,14.80
2015,07,18,04,09,14.80
2015,07,18,04,10,14.80
2015,07,18,04,11,14.80
2015,07,18,04,12,14.80
2015,07,18,04,13,14.80
2015,07,18,04,14,14.70
2015,07,18,04,15,14.70
2015,07,18,04,16,14.70
2015,07,18,04,17,14.70
2015,07,18,04,18,14.70
2015,07,18,04,19,14.80
2015,07,18,04,20,14.80
2015,07,18,04,21,14.80
2015,07,18,04,22,14.80
2015,07,18,04,23,14.90
2015,07,18,04,24,14.90
2015,07,18,04,25,14.90
2015,07,18,04,26,15.00
2015,07,18,04,27,15.00
2015,07,18,04,28,15.10
2015,07,18,04,29,15.30
2015,07,18,04,30,15.50
2015,07,18,04,31,15.60
2015,07,18,04,32,15.80
2015,07,18,04,33,16.00
2015,07,18,04,34,16.20
2015,07,18,04,35,16.30
2015,07,18,04,36,16.40
2015,07,18,04,37,16.50
2015,07,18,04,38,16.60
2015,07,18,04,39,16.70
2015,07,18,04,40,16.60
2015,07,18,04,41,16.60
2015,07,18,04,42,16.40
2015,07,18,04,43,16.30
2015,07,18,04,44,16.20
2015,07,18,04,45,16.10
2015,07,18,04,46,16.10
2015,07,18,04,47,16.00
2015,07,18,04,48,15.80
2015,07,18,04,49,15.80
2015,07,18,04,50,15.70
2015,07,18,04,51,15.60
2015,07,18,04,52,15.50
2015,07,18,04,53,15.50
2015,07,18,04,54,15.40
2015,07,18,04,55,15.30
2015,07,18,04,56,15.30
2015,07,18,04,57,15.30
2015,07,18,04,58,15.20
2015,07,18,04,59,15.20
2015,07,18,05,00,15.10
2015,07,18,05,01,15.00
2015,07,18,05,02,14.90
2015,07,18,05,03,14.90
2015,07,18,05,04,14.80
2015,07,18,05,05,14.80
2015,07,18,05,06,14.70
2015,07,18,05,07,14.60
2015,07,18,05,08,14.50
2015,07,18,05,09,14.40
2015,07,18,05,10,14.40
2015,07,18,05,11,14.30
2015,07,18,05,12,14.20
2015,07,18,05,13,14.20
2015,07,18,05,14,14.10
2015,07,18,05,15,14.10
2015,07,18,05,16,14.00
2015,07,18,05,17,14.00
2015,07,18,05,18,13.90
2015,07,18,05,19,13.90
2015,07,18,05,20,13.90
2015,07,18,05,21,13.80
2015,07,18,05,22,13.80
2015,07,18,05,23,13.70
2015,07,18,05,24,13.70
2015,07,18,05,25,13.70
2015,07,18,05,26,13.70
2015,07,18,05,27,13.70
2015,07,18,05,28,13.70
2015,07,18,05,29,13.70
2015,07,18,05,30,13.70
2015,07,18,05,31,13.70
2015,07,18,05,32,13.70
2015,07,18,05,33,13.70
2015,07,18,05,34,13.70
2015,07,18,05,35,13.80
2015,07,18,05,36,13.90
2015,07,18,05,37,14.10
2015,07,18,05,38,14.30
2015,07,18,05,39,14.50
2015,07,18,05,40,14.60
2015,07,18,05,41,14.80
2015,07,18,05,42,14.90
2015,07,18,05,43,15.00
2015,07,18,05,44,15.10
2015,07,18,05,45,15.20
2015,07,18,05,46,15.40
2015,07,18,05,47,15.50
2015,07,18,05,48,15.50
2015,07,18,05,49,15.60
2015,07,18,05,50,15.60
2015,07,18,05,51,15.70
2015,07,18,05,52,15.80
2015,07,18,05,53,15.80
2015,07,18,05,54,15.80
2015,07,18,05,55,15.90
2015,07,18,05,56,16.00
2015,07,18,05,57,16.10
2015,07,18,05,58,16.10
2015,07,18,05,59,16.10
2015,07,18,06,00,16.20
2015,07,18,06,01,16.30
2015,07,18,06,02,16.40
2015,07,18,06,03,16.40
2015,07,18,06,04,16.40
2015,07,18,06,05,16.60
2015,07,18,06,06,16.60
2015,07,18,06,07,16.70
2015,07,18,06,08,16.70
2015,07,18,06,09,16.80
2015,07,18,06,10,16.80
2015,07,18,06,11,16.90
2015,07,18,06,12,16.90
2015,07,18,06,13,17.00
2015,07,18,06,14,17.00
2015,07,18,06,15,17.00
2015,07,18,06,16,17.10
2015,07,18,06,17,17.10
2015,07,18,06,18,17.20
2015,07,18,06,19,17.20
2015,07,18,06,20,17.30
2015,07,18,06,21,17.30
2015,07,18,06,22,17.30
2015,07,18,06,23,17.30
2015,07,18,06,24,17.30
2015,07,18,06,25,17.40
2015,07,18,06,26,17.40
2015,07,18,06,27,17.40
2015,07,18,06,28,17.40
2015,07,18,06,29,17.50
2015,07,18,06,30,17.50
2015,07,18,06,31,17.50
2015,07,18,06,32,17.50
2015,07,18,06,33,17.50
2015,07,18,06,34,17.50
2015,07,18,06,35,17.50
2015,07,18,06,36,17.50
2015,07,18,06,37,17.60
2015,07,18,06,38,17.60
2015,07,18,06,39,17.60
2015,07,18,06,40,17.70
2015,07,18,06,41,17.70
2015,07,18,06,42,17.80
2015,07,18,06,43,17.80
2015,07,18,06,44,17.90
2015,07,18,06,45,17.90
2015,07,18,06,46,17.90
2015,07,18,06,47,17.90
2015,07,18,06,48,17.70
2015,07,18,06,49,17.50
2015,07,18,06,50,17.20
2015,07,18,06,51,17.00
2015,07,18,06,52,16.80
2015,07,18,06,53,16.70
2015,07,18,06,54,16.50
2015,07,18,06,55,16.20
2015,07,18,06,56,15.90
2015,07,18,06,57,15.80
2015,07,18,06,58,15.60
2015,07,18,06,59,15.50
2015,07,18,07,00,15.40
2015,07,18,07,01,15.30
2015,07,18,07,02,15.30
2015,07,18,07,03,15.20
2015,07,18,07,04,15.10
2015,07,18,07,05,15.10
2015,07,18,07,06,15.10
2015,07,18,07,07,15.00
2015,07,18,07,08,15.00
2015,07,18,07,09,14.90
2015,07,18,07,10,14.90
2015,07,18,07,11,14.80
2015,07,18,07,12,14.80
2015,07,18,07,13,14.90
2015,07,18,07,14,14.90
2015,07,18,07,15,14.90
2015,07,18,07,16,14.90
2015,07,18,07,17,14.90
2015,07,18,07,18,14.90
2015,07,18,07,19,15.00
2015,07,18,07,20,15.10
2015,07,18,07,21,15.10
2015,07,18,07,22,15.30
2015,07,18,07,23,15.30
2015,07,18,07,24,15.40
2015,07,18,07,25,15.40
2015,07,18,07,26,15.40
2015,07,18,07,27,15.50
2015,07,18,07,28,15.50
2015,07,18,07,29,15.60
2015,07,18,07,30,15.70
2015,07,18,07,31,15.80
2015,07,18,07,32,15.90
2015,07,18,07,33,16.00
2015,07,18,07,34,16.10
2015,07,18,07,35,16.30
2015,07,18,07,36,16.40
2015,07,18,07,37,16.60
2015,07,18,07,38,16.70
2015,07,18,07,39,16.90
2015,07,18,07,40,17.00
2015,07,18,07,41,17.10
2015,07,18,07,42,17.30
2015,07,18,07,43,17.40
2015,07,18,07,44,17.60
2015,07,18,07,45,17.70
2015,07,18,07,46,17.90
2015,07,18,07,47,18.00
2015,07,18,07,48,18.20
2015,07,18,07,49,18.30
2015,07,18,07,50,18.50
2015,07,18,07,51,18.60
2015,07,18,07,52,18.70
2015,07,18,07,53,18.90
2015,07,18,07,54,19.10
2015,07,18,07,55,19.20
2015,07,18,07,56,19.40
2015,07,18,07,57,19.50
2015,07,18,07,58,19.70
2015,07,18,07,59,19.80
2015,07,18,08,00,19.90
2015,07,18,08,01,20.10
2015,07,18,08,02,20.20
2015,07,18,08,03,20.30
2015,07,18,08,04,20.40
2015,07,18,08,05,20.50
2015,07,18,08,06,20.70
2015,07,18,08,07,20.80
2015,07,18,08,08,20.90
2015,07,18,08,09,21.00
2015,07,18,08,10,21.10
2015,07,18,08,11,21.20
2015,07,18,08,12,21.20
2015,07,18,08,13,21.30
2015,07,18,08,14,21.30
2015,07,18,08,15,21.30
2015,07,18,08,16,21.30
2015,07,18,08,17,21.30
2015,07,18,08,18,21.30
2015,07,18,08,19,21.30
2015,07,18,08,20,21.30
2015,07,18,08,21,21.30
2015,07,18,08,22,21.30
2015,07,18,08,23,21.30
2015,07,18,08,24,21.10
2015,07,18,08,25,20.90
2015,07,18,08,26,20.80
2015,07,18,08,27,20.60
2015,07,18,08,28,20.40
2015,07,18,08,29,20.20
2015,07,18,08,30,19.90
2015,07,18,08,31,19.70
2015,07,18,08,32,19.60
2015,07,18,08,33,19.50
2015,07,18,08,34,19.50
2015,07,18,08,35,19.40
2015,07,18,08,36,19.40
2015,07,18,08,37,19.40
2015,07,18,08,38,19.40
2015,07,18,08,39,19.30
2015,07,18,08,40,19.30
2015,07,18,08,41,19.20
2015,07,18,08,42,19.20
2015,07,18,08,43,19.30
2015,07,18,08,44,19.30
2015,07,18,08,45,19.40
2015,07,18,08,46,19.40
2015,07,18,08,47,19.40
2015,07,18,08,48,19.40
2015,07,18,08,49,19.40
2015,07,18,08,50,19.40
2015,07,18,08,51,19.40
2015,07,18,08,52,19.40
2015,07,18,08,53,19.40
2015,07,18,08,54,19.40
2015,07,18,08,55,19.50
2015,07,18,08,56,19.50
2015,07,18,08,57,19.50
2015,07,18,08,58,19.60
2015,07,18,08,59,19.60
2015,07,18,09,00,19.60
2015,07,18,09,01,19.70
2015,07,18,09,02,19.80
2015,07,18,09,03,19.90
2015,07,18,09,04,19.90
2015,07,18,09,05,20.00
2015,07,18,09,06,20.10
2015,07,18,09,07,20.20
2015,07,18,09,08,20.20
2015,07,18,09,09,20.20
2015,07,18,09,10,20.20
2015,07,18,09,11,20.30
2015,07,18,09,12,20.40
2015,07,18,09,13,20.40
2015,07,18,09,14,20.40
2015,07,18,09,15,20.40
2015,07,18,09,16,20.40
2015,07,18,09,17,20.40
2015,07,18,09,18,20.50
2015,07,18,09,19,20.50
2015,07,18,09,20,20.70
2015,07,18,09,21,20.80
2015,07,18,09,22,20.80
2015,07,18,09,23,21.00
2015,07,18,09,24,21.10
2015,07,18,09,25,21.30
2015,07,18,09,26,21.30
2015,07,18,09,27,21.40
2015,07,18,09,28,21.40
2015,07,18,09,29,21.60
2015,07,18,09,30,21.60
2015,07,18,09,31,21.80
2015,07,18,09,32,22.00
2015,07,18,09,33,22.10
2015,07,18,09,34,22.10
2015,07,18,09,35,22.10
2015,07,18,09,36,22.20
2015,07,18,09,37,22.20
2015,07,18,09,38,22.20
2015,07,18,09,39,22.20
2015,07,18,09,40,22.20
2015,07,18,09,41,22.20
2015,07,18,09,42,22.20
2015,07,18,09,43,22.20
2015,07,18,09,44,22.20
2015,07,18,09,45,22.20
2015,07,18,09,46,22.10
2015,07,18,09,47,22.10
2015,07,18,09,48,22.10
2015,07,18,09,49,22.20
2015,07,18,09,50,22.20
2015,07,18,09,51,22.30
2015,07,18,09,52,22.30
2015,07,18,09,53,22.40
2015,07,18,09,54,22.40
2015,07,18,09,55,22.40
2015,07,18,09,56,22.50
2015,07,18,09,57,22.60
2015,07,18,09,58,22.60
2015,07,18,09,59,22.50
2015,07,18,10,00,22.50
2015,07,18,10,01,22.40
2015,07,18,10,02,22.40
2015,07,18,10,03,22.30
2015,07,18,10,04,22.30
2015,07,18,10,05,22.20
2015,07,18,10,06,22.30
2015,07,18,10,07,22.30
2015,07,18,10,08,22.40
2015,07,18,10,09,22.50
2015,07,18,10,10,22.60
2015,07,18,10,11,22.60
2015,07,18,10,12,22.70
2015,07,18,10,13,22.80
2015,07,18,10,14,22.80
2015,07,18,10,15,22.90
2015,07,18,10,16,22.80
2015,07,18,10,17,22.70
2015,07,18,10,18,22.70
2015,07,18,10,19,22.70
2015,07,18,10,20,22.70
2015,07,18,10,21,22.70
2015,07,18,10,22,22.70
2015,07,18,10,23,22.80
2015,07,18,10,24,22.80
2015,07,18,10,25,22.80
2015,07,18,10,26,22.80
2015,07,18,10,27,22.90
2015,07,18,10,28,22.90
2015,07,18,10,29,22.90
2015,07,18,10,30,22.90
2015,07,18,10,31,22.80
2015,07,18,10,32,22.60
2015,07,18,10,33,22.50
2015,07,18,10,34,22.40
2015,07,18,10,35,22.30
2015,07,18,10,36,22.30
2015,07,18,10,37,22.30
2015,07,18,10,38,22.20
2015,07,18,10,39,22.20
2015,07,18,10,40,22.10
2015,07,18,10,41,22.00
2015,07,18,10,42,22.10
2015,07,18,10,43,22.10
2015,07,18,10,44,22.10
2015,07,18,10,45,22.20
2015,07,18,10,46,22.20
2015,07,18,10,47,22.30
2015,07,18,10,48,22.30
2015,07,18,10,49,22.30
2015,07,18,10,50,22.40
2015,07,18,10,51,22.60
2015,07,18,10,52,22.70
2015,07,18,10,53,22.80
2015,07,18,10,54,22.90
2015,07,18,10,55,23.00
2015,07,18,10,56,23.10
2015,07,18,10,57,23.20
2015,07,18,10,58,23.20
2015,07,18,10,59,23.20
2015,07,18,11,00,23.20
2015,07,18,11,01,23.20
2015,07,18,11,02,23.30
2015,07,18,11,03,23.30
2015,07,18,11,04,23.30
2015,07,18,11,05,23.40
2015,07,18,11,06,23.40
2015,07,18,11,07,23.40
2015,07,18,11,08,23.60
2015,07,18,11,09,23.60
2015,07,18,11,10,23.70
2015,07,18,11,11,23.70
2015,07,18,11,12,23.70
2015,07,18,11,13,23.80
2015,07,18,11,14,23.90
2015,07,18,11,15,23.90
2015,07,18,11,16,24.10
2015,07,18,11,17,24.10
2015,07,18,11,18,24.10
2015,07,18,11,19,24.10
2015,07,18,11,20,24.10
2015,07,18,11,21,24.10
2015,07,18,11,22,24.00
2015,07,18,11,23,23.90
2015,07,18,11,24,23.70
2015,07,18,11,25,23.70
2015,07,18,11,26,23.60
2015,07,18,11,27,23.60
2015,07,18,11,28,23.50
2015,07,18,11,29,23.40
2015,07,18,11,30,23.30
2015,07,18,11,31,23.30
2015,07,18,11,32,23.40
2015,07,18,11,33,23.50
2015,07,18,11,34,23.60
2015,07,18,11,35,23.60
2015,07,18,11,36,23.50
2015,07,18,11,37,23.40
2015,07,18,11,38,23.30
2015,07,18,11,39,23.30
2015,07,18,11,40,23.30
2015,07,18,11,41,23.40
2015,07,18,11,42,23.50
2015,07,18,11,43,23.60
2015,07,18,11,44,23.70
2015,07,18,11,45,23.70
2015,07,18,11,46,23.60
2015,07,18,11,47,23.60
2015,07,18,11,48,23.50
2015,07,18,11,49,23.40
2015,07,18,11,50,23.30
2015,07,18,11,51,23.40
2015,07,18,11,52,23.40
2015,07,18,11,53,23.30
2015,07,18,11,54,23.30
2015,07,18,11,55,23.30
2015,07,18,11,56,23.30
2015,07,18,11,57,23.20
2015,07,18,11,58,23.20
2015,07,18,11,59,23.20
2015,07,18,12,00,23.20
2015,07,18,12,01,23.30
2015,07,18,12,02,23.30
2015,07,18,12,03,23.30
2015,07,18,12,04,23.30
2015,07,18,12,05,23.30
2015,07,18,12,06,23.40
2015,07,18,12,07,23.40
2015,07,18,12,08,23.50
2015,07,18,12,09,23.60
2015,07,18,12,10,23.70
2015,07,18,12,11,23.70
2015,07,18,12,12,23.70
2015,07,18,12,13,23.70
2015,07,18,12,14,23.70
2015,07,18,12,15,23.70
2015,07,18,12,16,23.70
2015,07,18,12,17,23.70
2015,07,18,12,18,23.70
2015,07,18,12,19,23.60
2015,07,18,12,20,23.60
2015,07,18,12,21,23.50
2015,07,18,12,22,23.30
2015,07,18,12,23,23.30
2015,07,18,12,24,23.20
2015,07,18,12,25,23.20
2015,07,18,12,26,23.10
2015,07,18,12,27,23.10
2015,07,18,12,28,23.10
2015,07,18,12,29,23.00
2015,07,18,12,30,22.90
2015,07,18,12,31,22.80
2015,07,18,12,32,22.70
2015,07,18,12,33,22.60
2015,07,18,12,34,22.50
2015,07,18,12,35,22.50
2015,07,18,12,36,22.60
2015,07,18,12,37,22.60
2015,07,18,12,38,22.60
2015,07,18,12,39,22.70
2015,07,18,12,40,22.60
2015,07,18,12,41,22.60
2015,07,18,12,42,22.60
2015,07,18,12,43,22.70
2015,07,18,12,44,22.80
2015,07,18,12,45,22.80
2015,07,18,12,46,22.80
2015,07,18,12,47,22.90
2015,07,18,12,48,23.00
2015,07,18,12,49,23.10
2015,07,18,12,50,23.30
2015,07,18,12,51,23.30
2015,07,18,12,52,23.40
2015,07,18,12,53,23.50
2015,07,18,12,54,23.70
2015,07,18,12,55,23.70
2015,07,18,12,56,23.70
2015,07,18,12,57,23.70
2015,07,18,12,58,23.70
2015,07,18,12,59,23.70
2015,07,18,13,00,23.80
2015,07,18,13,01,23.90
2015,07,18,13,02,24.10
2015,07,18,13,03,24.10
2015,07,18,13,04,24.10
2015,07,18,13,05,24.20
2015,07,18,13,06,24.30
2015,07,18,13,07,24.30
2015,07,18,13,08,24.30
2015,07,18,13,09,24.10
2015,07,18,13,10,24.10
2015,07,18,13,11,24.10
2015,07,18,13,12,24.10
2015,07,18,13,13,24.10
2015,07,18,13,14,24.10
2015,07,18,13,15,24.10
2015,07,18,13,16,24.10
2015,07,18,13,17,24.10
2015,07,18,13,18,24.10
2015,07,18,13,19,24.00
2015,07,18,13,20,23.90
2015,07,18,13,21,23.90
2015,07,18,13,22,24.10
2015,07,18,13,23,24.20
2015,07,18,13,24,24.30
2015,07,18,13,25,24.30
2015,07,18,13,26,24.30
2015,07,18,13,27,24.40
2015,07,18,13,28,24.40
2015,07,18,13,29,24.40
2015,07,18,13,30,24.50
2015,07,18,13,31,24.60
2015,07,18,13,32,24.60
2015,07,18,13,33,24.40
2015,07,18,13,34,24.30
2015,07,18,13,35,24.30
2015,07,18,13,36,24.20
2015,07,18,13,37,24.20
2015,07,18,13,38,24.30
2015,07,18,13,39,24.20
2015,07,18,13,40,24.20
2015,07,18,13,41,24.10
2015,07,18,13,42,24.10
2015,07,18,13,43,24.10
2015,07,18,13,44,24.10
2015,07,18,13,45,24.10
2015,07,18,13,46,23.90
2015,07,18,13,47,23.90
2015,07,18,13,48,24.10
2015,07,18,13,49,24.10
2015,07,18,13,50,24.10
2015,07,18,13,51,24.10
2015,07,18,13,52,24.10
2015,07,18,13,53,24.10
2015,07,18,13,54,24.00
2015,07,18,13,55,23.90
2015,07,18,13,56,23.80
2015,07,18,13,57,23.70
2015,07,18,13,58,23.50
2015,07,18,13,59,23.40
2015,07,18,14,00,23.30
2015,07,18,14,01,23.20
2015,07,18,14,02,23.30
2015,07,18,14,03,23.10
2015,07,18,14,04,23.10
2015,07,18,14,05,23.00
2015,07,18,14,06,22.90
2015,07,18,14,07,22.80
2015,07,18,14,08,22.80
2015,07,18,14,09,22.80
2015,07,18,14,10,22.80
2015,07,18,14,11,22.70
2015,07,18,14,12,22.50
2015,07,18,14,13,22.50
2015,07,18,14,14,22.40
2015,07,18,14,15,22.40
2015,07,18,14,16,22.40
2015,07,18,14,17,22.40
2015,07,18,14,18,22.40
2015,07,18,14,19,22.40
2015,07,18,14,20,22.20
2015,07,18,14,21,22.20
2015,07,18,14,22,22.20
2015,07,18,14,23,22.30
2015,07,18,14,24,22.50
2015,07,18,14,25,22.60
2015,07,18,14,26,22.70
2015,07,18,14,27,22.70
2015,07,18,14,28,22.60
2015,07,18,14,29,22.50
2015,07,18,14,30,22.40
2015,07,18,14,31,22.50
2015,07,18,14,32,22.60
2015,07,18,14,33,22.50
2015,07,18,14,34,22.60
2015,07,18,14,35,22.60
2015,07,18,14,36,22.70
2015,07,18,14,37,22.60
2015,07,18,14,38,22.70
2015,07,18,14,39,22.70
2015,07,18,14,40,22.70
2015,07,18,14,41,22.80
2015,07,18,14,42,22.80
2015,07,18,14,43,22.80
2015,07,18,14,44,22.80
2015,07,18,14,45,22.70
2015,07,18,14,46,22.70
2015,07,18,14,47,22.80
2015,07,18,14,48,22.80
2015,07,18,14,49,22.90
2015,07,18,14,50,22.90
2015,07,18,14,51,23.00
2015,07,18,14,52,23.00
2015,07,18,14,53,23.10
2015,07,18,14,54,23.10
2015,07,18,14,55,23.20
2015,07,18,14,56,23.30
2015,07,18,14,57,23.30
2015,07,18,14,58,23.30
2015,07,18,14,59,23.20
2015,07,18,15,00,23.20
2015,07,18,15,01,23.20
2015,07,18,15,02,23.20
2015,07,18,15,03,23.20
2015,07,18,15,04,23.20
2015,07,18,15,05,23.20
2015,07,18,15,06,23.30
2015,07,18,15,07,23.30
2015,07,18,15,08,23.40
2015,07,18,15,09,23.60
2015,07,18,15,10,23.60
2015,07,18,15,11,23.60
2015,07,18,15,12,23.60
2015,07,18,15,13,23.60
2015,07,18,15,14,23.60
2015,07,18,15,15,23.50
2015,07,18,15,16,23.40
2015,07,18,15,17,23.50
2015,07,18,15,18,23.60
2015,07,18,15,19,23.60
2015,07,18,15,20,23.60
2015,07,18,15,21,23.60
2015,07,18,15,22,23.50
2015,07,18,15,23,23.40
2015,07,18,15,24,23.30
2015,07,18,15,25,23.30
2015,07,18,15,26,23.30
2015,07,18,15,27,23.20
2015,07,18,15,28,23.20
2015,07,18,15,29,23.20
2015,07,18,15,30,23.20
2015,07,18,15,31,23.20
2015,07,18,15,32,23.10
2015,07,18,15,33,23.10
2015,07,18,15,34,23.10
2015,07,18,15,35,23.10
2015,07,18,15,36,23.10
2015,07,18,15,37,23.10
2015,07,18,15,38,23.20
2015,07,18,15,39,23.40
2015,07,18,15,40,23.70
2015,07,18,15,41,23.70
2015,07,18,15,42,23.60
2015,07,18,15,43,23.50
2015,07,18,15,44,23.40
2015,07,18,15,45,23.30
2015,07,18,15,46,23.30
2015,07,18,15,47,23.20
2015,07,18,15,48,23.20
2015,07,18,15,49,23.20
2015,07,18,15,50,23.30
2015,07,18,15,51,23.30
2015,07,18,15,52,23.40
2015,07,18,15,53,23.60
2015,07,18,15,54,23.60
2015,07,18,15,55,23.60
2015,07,18,15,56,23.70
2015,07,18,15,57,23.70
2015,07,18,15,58,23.80
2015,07,18,15,59,23.80
2015,07,18,16,00,23.90
2015,07,18,16,01,24.00
2015,07,18,16,02,24.10
2015,07,18,16,03,24.10
2015,07,18,16,04,24.20
2015,07,18,16,05,24.20
2015,07,18,16,06,24.20
2015,07,18,16,07,24.20
2015,07,18,16,08,24.10
2015,07,18,16,09,24.10
2015,07,18,16,10,24.10
2015,07,18,16,11,24.10
2015,07,18,16,12,24.10
2015,07,18,16,13,24.20
2015,07,18,16,14,24.20
2015,07,18,16,15,24.40
2015,07,18,16,16,24.50
2015,07,18,16,17,24.50
2015,07,18,16,18,24.40
2015,07,18,16,19,24.40
2015,07,18,16,20,24.40
2015,07,18,16,21,24.30
2015,07,18,16,22,24.30
2015,07,18,16,23,24.30
2015,07,18,16,24,24.30
2015,07,18,16,25,24.30
2015,07,18,16,26,24.30
2015,07,18,16,27,24.40
2015,07,18,16,28,24.40
2015,07,18,16,29,24.40
2015,07,18,16,30,24.40
2015,07,18,16,31,24.30
2015,07,18,16,32,24.30
2015,07,18,16,33,24.40
2015,07,18,16,34,24.40
2015,07,18,16,35,24.50
2015,07,18,16,36,24.40
2015,07,18,16,37,24.40
2015,07,18,16,38,24.40
2015,07,18,16,39,24.40
2015,07,18,16,40,24.50
2015,07,18,16,41,24.50
2015,07,18,16,42,24.40
2015,07,18,16,43,24.40
2015,07,18,16,44,24.40
2015,07,18,16,45,24.40
2015,07,18,16,46,24.50
2015,07,18,16,47,24.50
2015,07,18,16,48,24.50
2015,07,18,16,49,24.50
2015,07,18,16,50,24.50
2015,07,18,16,51,24.50
2015,07,18,16,52,24.50
2015,07,18,16,53,24.60
2015,07,18,16,54,24.70
2015,07,18,16,55,24.80
2015,07,18,16,56,24.80
2015,07,18,16,57,24.80
2015,07,18,16,58,24.80
2015,07,18,16,59,24.70
2015,07,18,17,00,24.70
2015,07,18,17,01,24.70
2015,07,18,17,02,24.80
2015,07,18,17,03,24.90
2015,07,18,17,04,24.90
2015,07,18,17,05,25.00
2015,07,18,17,06,25.00
2015,07,18,17,07,25.00
2015,07,18,17,08,25.00
2015,07,18,17,09,24.90
2015,07,18,17,10,24.80
2015,07,18,17,11,24.70
2015,07,18,17,12,24.50
2015,07,18,17,13,24.40
2015,07,18,17,14,24.20
2015,07,18,17,15,24.00
2015,07,18,17,16,23.70
2015,07,18,17,17,23.50
2015,07,18,17,18,23.30
2015,07,18,17,19,23.30